Location: Beaucorroy
(50.6228°N, 1.8094°E)
Time: 06:42:55
(UTC+00:00)

Daily predictions for brighter satellites

Satellite Brightness Start Highest point End
(mag) Time Altitude Azimuth Time Altitude Azimuth Time Altitude Azimuth
CZ-4B DEB 4.4 17:58:54 10° SSE 18:04:22 83° WSW 18:09:53 10° NNW
SL-16 R/B 3.9 18:08:39 10° E 18:08:51 10° E 18:09:03 10° E
USA 215 3.4 18:02:34 10° ENE 18:09:08 86° NNW 18:15:42 10° WSW
USA 186 3.8 18:07:36 10° E 18:09:26 14° ENE 18:11:18 10° NNE
Tsikada Rocket 4.4 18:06:26 10° SSW 18:12:52 76° WNW 18:19:18 10° N
Cosmos 1844 Rocket 4.2 18:09:07 10° N 18:13:13 20° NE 18:17:18 10° E
SL-4 R/B 2.3 18:08:59 10° W 18:13:24 81° N 18:18:03 10° E
ARGOS Delta rocket 4.3 18:09:43 10° NNE 18:14:57 50° E 18:19:54 10° S
Timation 2 Rocket 4.1 18:10:39 10° NNW 18:17:09 62° NE 18:23:20 10° SE
SKYMED 3 4.4 18:13:10 10° NNE 18:17:18 78° ESE 18:21:25 10° S
BREEZE-M DEB (TANK) 4.5 18:16:59 10° SSW 18:21:32 47° SE 18:38:27 10° ENE
Okean O Rocket 1.7 18:18:25 10° SSE 18:22:41 56° ENE 18:26:59 10° N
Cosmos 2219 4.2 18:18:27 10° NW 18:24:01 52° WSW 18:29:35 10° S
Cosmos 1814 Rocket 4.5 18:20:01 10° NNW 18:25:03 42° ENE 18:29:59 10° SE
Cosmos 1242 Rocket 2.4 18:24:44 10° S 18:28:15 63° E 18:31:47 10° NNE
Spot 1 3.9 18:24:07 10° NNE 18:28:26 73° ESE 18:32:33 10° S
SL-14 R/B 3.3 18:26:14 10° N 18:30:10 63° ENE 18:34:06 10° SSE
Cosmos 2263 Rocket 2.2 18:25:52 10° NNW 18:31:34 68° ENE 18:37:15 10° SE
Cosmos 1674 Rocket 3.6 18:30:16 10° N 18:34:38 60° ENE 18:39:00 10° SSE
Cosmos 2360 4.3 18:29:18 10° SSW 18:35:02 85° WNW 18:40:49 10° NNE
Cosmos 1805 3.2 18:31:14 10° S 18:35:04 64° E 18:38:56 10° NNE
Meteor 2-5 Rocket 4.4 18:31:27 10° N 18:36:28 33° ENE 18:41:16 11° SE
YAOGAN 1 2.5 18:32:11 10° SSE 18:36:31 89° ENE 18:40:52 10° NNW
SKYMED 2 4.3 18:33:10 10° N 18:37:28 58° WNW 18:41:43 10° SSW
Cosmos 1726 2.4 18:35:18 10° SSE 18:38:45 42° E 18:42:15 10° NNE
COBE Rocket 4.0 18:33:56 10° SSE 18:38:50 83° WSW 18:43:38 10° NNW
OBJECT-B 1.3 18:38:57 21° ESE 18:39:51 26° ENE 18:42:07 10° N
H-2A R/B 4.1 18:39:28 14° ENE 18:40:24 16° ENE 18:42:45 10° NNE
Cosmos 2082 4.2 18:37:18 10° NW 18:42:59 65° WSW 18:48:39 10° SSE
IRIDIUM 106 4.4 18:41:02 10° SSE 18:46:07 56° E 18:51:14 10° NNE
Cosmos 1766 3.5 18:45:18 10° SSE 18:49:02 45° E 18:52:48 10° NNE
Cosmos 1025 Rocket 4.2 18:46:40 10° NNE 18:50:06 23° ENE 18:51:18 20° E
Cosmos 2084 Rocket 4.4 18:47:05 10° NNW 18:50:26 28° NNE 18:52:17 19° ENE
Cosmos 1697 Rocket 3.2 18:47:23 10° SW 18:52:57 64° WNW 18:58:35 10° NNE
CSL-04 Debris 4.3 18:50:58 10° SE 18:56:15 57° ENE 19:01:32 10° N
Cosmos 2221 Rocket 4.1 18:52:37 10° NNW 18:57:06 64° W 19:01:35 10° S
Cosmos 1975 Rocket 4.0 18:55:35 10° N 18:59:30 29° ENE 19:00:50 25° E
ASTEX 1 4.3 18:54:56 10° N 18:59:47 54° WNW 19:04:38 10° SSW
Landsat 7 4.3 19:00:02 22° ESE 19:02:32 38° ENE 19:06:54 10° N
Cosmos 1092 Rocket 4.4 18:56:45 10° SSE 19:02:32 40° E 19:08:20 10° NNE
IGS 5A 3.7 18:59:48 19° SE 19:02:33 48° ENE 19:06:34 10° N
Cosmos 1378 Rocket 3.8 18:59:27 10° NNW 19:03:51 73° W 19:08:10 10° S
Resurs 01 Rocket 2.8 19:05:25 23° ENE 19:06:06 23° ENE 19:09:38 10° N
Cosmos 1733 4.2 19:05:37 10° SSW 19:09:15 47° WNW 19:12:54 10° N
Cosmos 968 Rocket 4.0 19:05:25 10° SSE 19:10:12 36° ESE 19:14:58 10° NE
ATLAS 2AS CENTAUR R/B 4.3 19:08:15 10° WNW 19:14:45 30° N 19:20:56 10° NE
Cosmos 1470 3.2 19:15:56 37° E 19:15:56 37° E 19:19:29 10° NNE
Cosmos 1733 Rocket 4.1 19:12:13 10° SSW 19:16:30 48° WNW 19:20:51 10° N
ISS -2.5 19:18:47 10° W 19:21:52 34° SSW 19:22:45 28° S
Cosmos 2084 3.7 19:18:55 10° WSW 19:22:42 58° NW 19:25:48 15° NE
Cosmos 2322 Rocket 3.8 19:27:50 17° ENE 19:27:50 17° ENE 19:29:26 10° NE
Ariane Rocket 4.1 19:25:15 26° ENE 19:25:45 26° ENE 19:29:55 10° N
CSL-04 Rocket 3.6 19:21:40 14° SSE 19:26:18 85° ENE 19:31:45 10° NNW
Okean-O 2.5 19:24:10 24° SSE 19:26:51 80° ENE 19:31:18 10° NNW
Terra 4.1 19:28:16 11° NE 19:28:16 11° NE 19:28:56 10° NE
Resurs 1-3 3.5 19:26:16 33° SE 19:28:06 66° ENE 19:32:28 10° N
Cosmos 1850 Rocket 4.4 19:23:03 10° SW 19:28:14 65° WNW 19:33:30 10° NNE
CZ-4 R/B 2.9 19:24:24 10° SSW 19:28:17 38° W 19:32:13 10° NNW
Cosmos 1570 Rocket 3.9 19:26:33 10° NNW 19:31:52 90° SSW 19:34:49 27° SSE
SJ-6B 2.7 19:30:24 28° S 19:32:16 77° WSW 19:36:04 10° NNW
Cosmos 1980 Rocket 2.7 19:27:37 10° SW 19:33:12 62° WNW 19:38:48 10° NNE
Meteor 1-12 Rocket 4.4 19:29:22 10° SSW 19:35:23 86° WNW 19:41:27 10° NNE
Meteor 2-21 Rocket 4.4 19:29:33 10° SSW 19:35:37 84° W 19:41:43 10° N
JB-3 4.2 19:33:49 10° NNE 19:37:54 64° E 19:38:36 53° SSE
Cosmos 1627 Rocket 4.4 19:32:32 10° S 19:38:33 63° E 19:44:36 10° NNE
USA 186 2.7 19:40:04 30° SSW 19:41:21 49° W 19:44:38 10° NNW
deb Chang Zheng 4 3.3 19:41:18 61° ESE 19:41:40 64° ENE 19:45:47 10° N
Cosmos 1428 Rocket 4.3 19:39:48 10° S 19:45:57 78° E 19:52:13 10° NNE
Cosmos 2195 Rocket 4.4 19:39:54 10° S 19:46:07 82° E 19:52:26 10° NNE
Cosmos 489 Rocket 4.5 19:39:51 10° SSW 19:46:13 85° WNW 19:52:35 10° NNE
Meteor 1-24 Rocket 3.5 19:43:09 10° NNW 19:48:29 83° W 19:51:25 28° S
Cosmos 2278 3.8 19:42:48 10° SSW 19:48:30 79° WNW 19:54:13 10° NNE
Cosmos 1437 Rocket 2.8 19:46:14 10° SSW 19:49:59 70° WNW 19:53:45 10° N
SL-16 R/B 2.1 19:46:12 10° S 19:51:45 60° ESE 19:57:20 10° NE
USA 215 3.8 19:47:18 19° ENE 19:51:54 54° N 19:58:14 10° W
SL-4 R/B 2.6 19:48:26 10° WNW 19:52:52 52° SSW 19:53:27 49° S
Cosmos 2208 Rocket 4.1 19:49:52 10° NNW 19:55:14 75° WSW 19:57:21 38° S
Cosmos 1844 Rocket 2.6 19:52:28 10° NNW 19:58:10 71° ENE 19:59:17 56° ESE
Okean O Rocket 4.2 19:56:18 10° SW 19:59:23 19° W 20:02:30 10° NW
USA 81 4.1 19:55:59 10° N 20:01:17 78° W 20:03:44 33° S
Meteor 1-22 Rocket 4.1 19:55:57 10° SSW 20:01:20 84° WNW 20:06:58 10° NNE
Landsat 5 4.2 19:57:03 10° N 20:01:28 57° WNW 20:05:51 10° SSW
Cosmos 2278 Rocket 3.8 19:58:12 10° N 20:02:16 20° NE 20:03:03 19° NE
Cosmos 2026 Rocket 3.8 19:57:31 10° S 20:03:36 89° WNW 20:09:42 10° N
Cosmos 1553 Rocket 3.9 20:01:37 10° N 20:07:59 76° E 20:09:43 50° SSE
Cosmos 1782 Rocket 3.7 20:06:54 40° SSW 20:08:22 69° WNW 20:12:44 10° N
MOS 1 4.1 20:08:42 58° SSE 20:09:53 82° ENE 20:15:35 10° NNW
OBJECT-B 3.5 20:09:47 13° W 20:10:01 13° W 20:11:16 10° WNW
Cosmos 1943 Rocket 4.4 20:09:48 10° N 20:11:50 12° NNE 20:13:27 11° NE
Cosmos 2263 Rocket 4.2 20:10:33 10° NW 20:15:00 24° WSW 20:19:26 10° SSW
H-2A R/B 2.9 20:15:55 57° WNW 20:15:55 57° WNW 20:19:17 10° NNW
USA 281 3.7 20:16:22 41° ENE 20:17:10 43° NE 20:23:17 10° NNW
Cosmos 1844 3.5 20:14:11 10° NNW 20:19:47 85° ENE 20:20:06 79° ESE
MetOp-A 4.2 20:21:57 47° WNW 20:21:57 47° WNW 20:25:10 10° NNW
Cosmos 773 Rocket 4.4 20:19:58 10° NNW 20:24:31 50° NNE 20:24:31 50° NNE
Cosmos 1025 Rocket 4.0 20:23:48 10° NNW 20:27:54 43° W 20:28:11 42° WSW
MetOp-B 4.1 20:31:47 72° NNE 20:31:47 72° NNE 20:36:44 10° NNW
SPOT 1/Viking Rocket 3.6 20:32:06 67° WSW 20:32:22 68° WSW 20:37:31 10° NNW
SPOT 3 Rocket 4.1 20:37:48 48° NNE 20:37:48 48° NNE 20:41:42 10° N
Cosmos 1975 Rocket 4.5 20:33:22 10° NNW 20:37:23 34° W 20:37:59 33° WSW
Cosmos 2360 Rocket 4.3 20:46:44 15° NE 20:46:44 15° NE 20:47:36 10° NNE
Resurs 01 Rocket 2.6 20:42:59 45° WNW 20:42:59 45° WNW 20:46:39 10° NNW
Ariane Rocket 3.9 21:05:26 47° WNW 21:05:26 47° WNW 21:09:26 10° NNW
Terra 3.6 21:07:10 26° N 21:07:10 26° N 21:09:19 10° N
ERS-1 Rocket 4.3 21:07:50 35° N 21:07:50 35° N 21:10:44 10° N
ATLAS 2AS CENTAUR R/B 3.8 21:01:05 10° NW 21:07:44 35° NNE 21:08:59 33° NE
Cosmos 2322 Rocket 2.9 21:09:31 49° N 21:09:31 49° N 21:13:59 10° NNE
S3M 4.4 21:10:45 10° NNW 21:16:36 58° W 21:16:36 58° W
Gbstr 26 Del rocket 4.4 21:08:54 10° W 21:16:57 85° N 21:17:10 84° NNE
SPOT 5 4.5 21:20:43 32° NNW 21:20:43 32° NNW 21:23:15 10° NNW
NOSS 3-4 (A) 3.8 21:12:19 10° NW 21:18:30 71° N 21:18:30 71° N
NOSS 3-4 (C) 3.9 21:12:26 10° NW 21:18:36 71° N 21:18:36 71° N
Cosmos 2266 Rocket 4.4 21:21:36 58° N 21:21:36 58° N 21:26:42 10° N
USA 215 3.7 21:34:39 56° N 21:34:39 56° N 21:40:48 10° WNW
SL-16 R/B 3.8 21:31:11 10° WSW 21:36:13 32° NW 21:41:17 10° NNE
Cosmos 2278 Rocket 3.6 21:41:44 10° NNW 21:44:53 34° NNW 21:44:53 34° NNW
Cosmos 1943 Rocket 4.1 21:52:23 10° NNW 21:54:57 23° N 21:54:57 23° N
Cosmos 2369 Rocket 4.4 21:57:01 10° NNW 21:59:59 19° NNE 21:59:59 19° NNE
USA 281 4.1 22:03:14 43° WNW 22:03:14 43° WNW 22:08:00 10° NW
Cosmos 2333 Rocket 4.4 22:08:01 18° NNE 22:08:01 18° NNE 22:09:31 10° NNE
Cosmos 2360 Rocket 4.2 22:28:28 23° N 22:28:28 23° N 22:31:20 10° NNE
ATLAS 2AS CENTAUR R/B 4.0 22:52:29 10° NW 22:56:23 35° NW 22:56:23 35° NW
